Theta_e
310 310 310 310 309 309 308 307 307 306 306 306 305 304 304 305 305 305 306 307 308 309 309 310 312 315 316 317 318 318 318 319 319 319 320 320 321 322 323 324 325 326 327 327 328 328 328 328 328 327 327 327 327 328 328 328 328 328 328 328 327 327 327
310 310 311 311 311 310 308 308 308 307 307 306 306 305 305 304 304 304 304 305 306 307 308 309 309 311 312 313 314 314 315 316 316 316 316 316 316 318 319 320 322 323 323 324 324 325 326 326 327 327 327 328 327 327 328 327 328 328 328 328 328 328 328
311 311 311 311 311 311 310 308 308 308 307 306 306 306 305 305 305 305 304 304 304 304 305 306 306 305 306 306 307 308 309 311 312 313 314 314 314 315 316 317 319 320 321 322 322 323 324 325 325 326 326 327 327 327 327 327 328 328 329 329 328 328 328
310 311 310 311 311 311 311 310 309 308 308 307 307 306 306 305 305 305 305 305 305 304 304 304 304 304 304 304 304 304 305 306 307 309 311 312 313 315 316 316 317 319 321 322 323 323 323 325 326 327 326 325 326 327 327 328 328 328 329 329 329 329 329
311 310 311 311 311 312 312 311 309 308 308 308 307 306 306 306 305 305 305 305 305 305 305 304 304 304 303 303 303 303 303 303 304 305 306 307 308 310 313 314 316 317 319 321 323 323 323 324 324 325 325 325 325 326 326 326 327 328 328 328 329 329 329
311 311 311 311 312 312 312 311 310 309 309 308 308 307 306 306 306 305 305 305 305 304 304 304 304 304 304 304 303 303 303 302 303 303 303 304 304 305 307 310 312 315 317 318 320 321 322 323 323 323 324 324 325 325 325 325 326 327 328 328 328 328 328
312 311 311 312 312 313 312 312 311 310 309 308 308 307 307 306 306 306 305 305 305 304 304 304 304 304 304 304 304 304 303 302 302 302 303 303 303 303 303 304 307 310 313 316 317 319 320 321 322 322 323 323 323 324 323 324 324 325 326 327 327 327 327
312 312 311 311 312 312 313 313 311 310 310 309 308 307 307 306 306 306 305 305 304 304 304 304 304 304 304 304 304 304 303 303 302 302 302 302 303 303 303 303 304 305 308 311 314 316 318 318 319 320 322 322 323 323 323 323 323 324 325 325 325 326 326
313 313 312 312 312 312 313 313 312 311 310 309 308 308 307 307 306 306 306 305 304 304 304 304 304 305 305 305 304 304 303 303 303 302 302 302 303 303 303 302 302 303 304 306 309 312 314 315 317 318 319 320 321 323 323 322 322 323 323 323 323 323 323
314 313 312 311 312 312 312 313 312 311 310 309 309 308 307 307 306 306 306 305 304 303 304 304 304 305 305 305 305 304 304 303 303 303 302 302 302 303 303 303 303 303 303 303 305 307 309 311 313 314 316 318 319 320 321 322 321 320 321 321 321 322 321
314 313 312 312 312 312 312 313 312 311 311 309 309 308 307 306 306 306 306 305 304 303 304 304 304 305 304 304 304 304 304 303 303 303 302 302 302 302 302 303 304 304 303 303 303 304 305 308 309 312 313 315 316 318 318 319 319 319 319 319 319 320 321
314 314 313 312 312 311 312 312 312 312 311 310 309 308 307 306 306 306 306 305 304 303 304 304 304 304 304 304 304 304 303 303 303 303 303 302 302 302 302 302 303 304 304 304 304 303 303 304 306 309 312 313 315 316 317 317 317 316 316 317 317 317 318
316 315 314 312 311 311 311 312 312 312 311 310 309 309 307 306 306 306 306 305 303 303 303 304 304 304 304 304 304 304 303 303 303 303 303 303 302 302 302 302 302 303 304 305 305 305 304 304 304 305 308 311 314 316 316 316 317 316 313 314 314 313 313
316 316 315 313 311 311 311 312 312 312 311 310 309 309 307 305 305 305 306 304 303 303 303 303 304 304 304 303 303 303 303 302 302 302 302 302 302 302 302 302 302 302 303 304 305 306 306 306 305 304 304 306 309 313 315 316 316 316 314 313 314 314 314
316 317 317 314 312 311 310 311 312 311 311 310 310 309 307 305 305 305 305 304 303 303 303 303 303 303 303 303 302 302 302 302 302 302 301 302 302 302 302 302 302 302 302 303 303 304 305 306 307 307 306 305 305 308 311 314 314 316 316 315 315 316 317
317 318 317 315 313 311 310 311 311 311 310 310 310 310 307 304 305 305 304 303 303 303 303 303 303 303 302 302 302 301 301 301 300 300 300 300 301 301 301 301 302 302 302 302 302 303 303 305 306 307 307 307 306 305 307 310 312 313 315 316 316 317 318
318 318 318 317 314 312 311 311 311 311 310 310 310 309 307 305 305 305 303 303 303 303 303 303 303 303 302 302 301 301 300 300 299 299 299 299 299 299 299 300 300 301 301 302 302 302 303 304 306 307 307 308 308 306 306 307 309 310 313 315 316 317 318
320 319 319 318 316 313 312 312 311 311 311 311 311 309 306 305 305 304 303 303 303 303 304 304 304 303 302 301 301 300 300 299 298 298 297 297 298 298 298 299 299 300 301 301 302 302 303 303 304 306 307 307 307 307 307 306 306 308 310 312 315 316 317
320 320 319 319 317 314 312 312 312 311 311 311 310 307 305 305 305 303 303 303 303 304 305 305 304 303 302 301 300 300 300 299 299 298 297 296 296 296 297 298 299 299 300 300 302 302 303 303 303 303 304 305 306 306 307 307 306 306 307 309 312 314 316
319 319 319 320 319 315 313 312 312 311 311 310 308 306 306 305 304 303 303 303 304 305 305 305 303 302 301 301 301 300 300 300 299 298 297 296 295 295 297 298 298 299 299 299 299 300 301 301 302 302 302 303 303 304 304 306 306 306 305 306 308 311 314
319 317 318 320 319 316 313 312 312 311 310 309 307 307 305 304 303 303 303 304 305 305 305 303 302 301 301 301 301 301 300 299 299 298 297 296 295 295 296 298 298 298 298 298 298 298 299 300 300 301 301 300 301 301 302 302 304 304 305 305 306 307 311
320 316 316 320 319 315 312 312 312 310 309 309 308 306 304 303 303 303 303 304 305 305 303 302 301 301 301 301 300 300 299 299 298 297 296 295 295 295 296 297 298 298 298 298 298 298 298 298 298 299 300 299 299 299 300 300 301 302 302 304 305 305 307
321 317 317 320 319 314 312 312 311 310 310 309 307 305 304 304 304 303 304 305 305 304 302 301 301 302 301 300 300 299 298 297 296 295 295 295 295 295 296 296 297 298 298 298 298 298 298 298 298 298 298 298 298 298 298 299 299 299 300 301 303 304 305
322 319 318 319 318 313 311 311 311 310 309 307 306 304 304 304 304 304 305 305 304 302 301 302 302 301 300 299 298 297 296 295 295 295 295 295 295 295 296 297 297 297 298 298 298 298 298 298 298 298 297 298 297 297 297 298 298 299 299 299 301 302 303
322 320 319 318 316 312 311 311 310 310 308 306 305 304 304 304 304 304 305 304 302 302 302 302 301 300 298 296 295 295 295 296 296 296 296 296 296 297 297 297 298 298 298 298 298 298 298 298 298 298 298 298 298 297 297 297 297 298 298 299 299 300 302
321 319 318 316 314 311 311 311 311 309 307 305 304 304 304 304 305 305 304 303 302 302 302 301 299 296 295 294 294 294 295 296 296 296 296 297 297 297 298 298 298 298 298 298 297 297 297 298 298 298 298 298 298 298 297 297 297 297 297 298 298 300 301
321 319 316 314 312 311 312 312 310 308 306 305 304 304 304 305 305 305 303 302 302 301 300 297 295 294 293 293 293 293 294 295 295 296 296 296 296 297 297 297 298 298 297 297 296 296 296 297 297 297 297 298 298 299 298 298 297 297 297 297 297 299 301
319 318 315 313 312 312 312 311 309 308 306 305 304 304 305 306 305 304 303 302 301 298 296 294 293 293 292 292 292 293 294 294 295 295 295 296 296 296 297 297 297 297 297 296 296 295 295 295 295 296 296 297 297 298 298 298 298 297 297 297 297 298 299
317 316 314 313 312 312 312 310 308 306 305 304 304 305 305 305 304 304 302 300 297 295 294 294 293 292 292 292 293 293 293 293 294 294 295 295 296 296 296 296 296 296 296 296 296 295 294 294 294 295 295 296 296 297 298 298 298 297 297 297 297 297 298
317 315 314 313 312 312 311 309 306 303 303 304 305 305 305 304 303 301 298 296 296 295 295 294 293 292 292 292 293 293 292 293 293 294 294 295 295 295 295 295 295 295 295 295 295 295 294 293 293 294 294 295 295 296 296 297 296 297 297 297 297 297 297
317 314 312 311 311 312 309 306 303 303 304 305 305 305 304 302 299 297 296 296 297 296 295 293 292 292 292 293 293 293 292 292 292 293 294 294 294 294 294 294 294 294 294 294 295 294 294 293 293 293 293 294 294 295 295 295 295 295 295 295 296 296 296
315 312 309 310 311 310 307 304 303 304 305 305 304 303 300 298 296 297 297 297 297 295 293 292 292 292 293 293 293 293 292 291 292 293 293 294 294 294 294 294 294 294 294 294 294 294 294 294 294 293 293 293 293 294 294 294 294 294 294 294 294 295 295
313 311 310 310 309 307 304 303 304 305 304 303 301 299 297 296 297 297 297 297 296 294 292 292 293 293 293 293 293 293 291 291 292 293 293 293 294 294 294 294 293 293 293 293 294 294 294 294 294 294 293 292 292 293 293 293 293 293 293 293 293 294 294
312 311 311 309 306 304 304 304 304 302 300 298 297 296 296 297 297 297 296 296 295 293 292 293 293 293 293 294 293 292 291 291 292 293 293 293 293 293 293 293 293 293 293 293 293 293 293 293 293 294 293 292 293 293 293 293 293 293 293 293 293 293 294
310 309 308 305 303 304 304 301 299 298 296 296 296 296 297 297 296 296 296 295 293 292 293 293 293 293 294 293 293 291 291 291 292 292 292 292 292 292 292 292 292 292 292 292 292 292 292 292 292 292 293 293 293 293 293 292 292 292 293 293 293 293 294
308 307 306 304 302 302 300 297 296 296 296 296 296 296 297 296 296 296 295 293 292 292 293 293 293 294 294 293 292 291 291 292 292 292 291 291 291 291 292 292 292 292 292 292 291 291 292 292 292 292 293 293 293 293 293 292 292 292 292 293 293 293 294
306 305 303 302 300 298 297 297 298 297 297 296 296 296 296 296 295 295 294 292 292 293 294 293 293 294 293 292 290 290 291 292 292 291 291 291 291 291 291 292 292 292 292 292 292 292 292 292 292 293 294 294 293 293 293 292 292 292 292 292 293 293 293
Wind_Speed
6 7 5 3 3 3 3 4 5 5 6 7 7 7 6 6 6 5 4 4 4 6 6 7 8 8 8 8 8 9 10 11 11 11 11 11 12 12 12 12 13 13 14 15 15 15 17 21 23 20 18 17 18 20 21 22 24 25 26 25 24 24 23
8 8 7 4 3 2 2 2 3 3 4 6 7 7 8 8 7 7 6 5 4 3 3 4 6 7 8 8 8 9 10 11 12 12 12 12 13 14 13 13 13 13 14 15 16 17 18 20 24 25 23 22 22 22 21 22 23 25 26 27 26 26 26
11 10 9 7 5 4 4 3 2 2 3 4 5 5 6 6 6 6 6 5 4 4 2 2 3 4 6 7 8 9 10 12 13 14 14 14 15 15 15 15 15 14 14 14 13 15 16 17 21 24 23 23 24 25 25 24 24 25 25 27 28 28 27
12 11 9 8 7 6 6 5 4 3 2 3 4 4 4 4 4 4 3 3 2 2 1 0 2 3 5 7 8 9 11 12 14 15 16 16 16 16 16 16 16 15 14 13 12 12 13 15 18 22 22 23 25 26 26 25 26 25 24 25 27 27 27
12 11 9 8 8 7 7 7 7 5 4 3 3 4 3 3 2 2 1 1 1 1 1 2 3 4 5 6 8 10 12 13 15 16 16 16 17 18 17 17 17 17 16 15 14 13 13 15 17 20 22 22 25 27 26 25 25 26 25 23 23 23 25
13 12 10 9 9 9 9 9 9 7 6 5 4 3 3 2 1 1 1 2 2 3 3 3 3 4 5 6 6 8 10 12 15 17 18 17 17 18 18 18 18 18 18 18 17 16 15 15 17 19 21 20 22 26 26 25 25 25 27 27 25 24 24
15 14 12 11 10 11 11 11 10 8 7 6 5 4 4 3 2 2 2 3 5 5 5 5 5 6 6 7 7 7 7 9 12 15 17 18 18 19 18 18 18 19 20 20 20 19 18 17 16 17 19 19 20 23 25 25 25 25 26 30 30 29 28
16 15 13 12 11 12 12 12 11 10 9 8 7 6 5 4 3 3 3 5 6 6 6 6 7 7 8 8 8 8 7 7 9 11 14 17 18 19 20 20 20 20 20 21 21 21 21 20 19 18 18 18 19 21 23 23 24 23 24 27 29 29 29
18 17 15 13 13 13 13 13 12 12 11 10 9 8 6 5 4 4 5 6 7 7 7 7 8 8 9 9 10 9 9 9 8 8 10 13 16 18 19 20 21 21 21 21 22 22 23 22 22 22 21 19 19 21 23 23 24 24 24 25 27 27 27
19 18 16 14 14 13 14 14 13 13 12 12 11 10 8 6 6 6 7 8 9 9 8 9 10 11 11 11 12 11 11 10 10 10 9 10 12 15 17 19 21 22 23 23 23 23 23 23 24 24 24 23 21 21 22 24 27 27 26 26 27 27 25
20 19 17 15 14 14 15 15 15 15 15 14 13 12 10 8 7 8 9 10 10 10 10 10 11 12 13 13 14 13 13 12 11 11 11 11 11 12 14 16 18 20 22 23 24 24 25 24 24 24 25 25 23 22 22 24 29 31 29 29 29 28 26
22 21 18 15 15 16 16 17 16 16 16 15 14 13 11 10 9 9 10 11 11 10 10 11 11 12 13 14 15 15 15 15 14 13 12 12 13 13 14 14 16 18 20 22 23 24 25 26 26 26 25 25 24 24 23 23 27 31 31 31 33 31 29
24 23 20 17 17 17 17 17 17 17 17 17 15 14 13 12 11 12 12 13 13 11 10 11 11 13 14 16 17 17 17 17 17 17 15 15 15 16 16 16 16 17 19 21 22 23 24 25 27 27 27 27 26 25 25 23 25 30 32 32 34 34 33
26 25 22 19 19 18 18 18 18 18 18 17 16 15 14 13 13 13 14 14 13 12 11 11 12 14 16 17 19 19 20 20 20 20 20 19 18 18 18 18 18 19 19 21 22 23 24 24 25 27 28 29 28 27 26 25 25 29 32 32 31 32 31
28 28 25 22 21 20 19 19 18 18 18 17 17 15 15 15 14 15 15 15 14 13 12 12 14 16 18 19 20 20 21 21 22 23 23 23 23 21 20 19 19 20 21 22 23 24 25 25 25 26 26 27 29 29 28 28 27 28 32 33 30 30 29
30 30 27 25 23 22 21 20 19 18 18 18 17 16 16 15 15 15 16 15 15 13 13 14 16 18 19 20 21 20 20 21 22 24 24 25 25 25 24 21 20 21 22 23 24 25 26 26 26 27 26 26 27 29 29 29 28 28 30 33 31 29 28
32 32 30 26 24 23 22 20 19 19 19 18 18 17 17 16 16 16 15 15 13 12 13 15 17 20 21 20 20 20 20 22 23 24 25 25 26 26 26 26 23 22 22 23 24 24 25 25 26 27 28 27 26 27 28 29 29 29 29 33 34 31 29
36 34 31 27 25 24 22 21 20 20 19 19 19 18 18 17 17 16 14 13 12 12 14 16 19 21 20 19 19 20 21 23 24 24 25 25 26 26 27 27 26 24 23 23 23 24 24 24 25 26 28 28 27 26 26 27 29 29 28 32 37 36 33
37 35 32 28 25 25 23 21 21 20 19 19 19 19 18 17 16 14 12 11 11 13 15 17 20 20 19 19 20 22 24 25 26 26 26 26 27 27 27 26 27 26 24 24 23 24 24 24 25 25 26 26 26 26 26 27 27 29 30 33 38 40 38
37 34 33 30 26 25 23 21 20 20 19 19 19 18 17 16 14 12 11 11 12 14 16 19 20 20 20 21 23 25 27 28 29 29 29 28 28 28 27 26 26 26 25 26 26 25 26 26 26 26 25 25 25 26 26 27 27 28 30 33 36 40 41
38 34 34 33 29 25 22 20 20 20 19 18 18 17 16 14 12 10 10 11 14 16 18 20 20 20 21 24 26 28 30 32 33 33 32 31 30 28 27 26 26 26 26 26 27 27 27 28 28 29 28 28 28 29 30 30 29 29 29 31 35 39 41
40 37 36 36 31 25 22 20 20 20 19 18 17 16 13 11 10 10 11 13 15 18 20 20 19 20 23 25 27 30 32 34 35 35 35 34 32 30 29 28 28 27 27 27 27 27 28 29 30 31 32 31 31 32 32 32 32 31 31 31 34 37 40
44 42 39 37 32 26 22 21 20 19 18 16 15 13 12 11 11 12 13 15 18 19 19 19 19 21 23 26 30 32 35 36 37 37 37 36 35 33 32 32 31 31 31 30 30 29 29 29 30 31 33 33 33 32 32 32 32 32 32 32 33 34 38
47 46 42 37 33 28 25 23 22 19 17 15 14 12 12 13 13 14 15 17 19 19 18 18 20 23 26 29 32 35 37 38 37 37 37 36 36 36 35 35 35 35 34 34 34 33 33 32 32 33 34 34 34 34 33 33 34 33 32 33 34 33 35
47 46 42 38 34 30 27 25 22 19 18 17 15 13 14 15 15 16 17 18 18 18 18 19 22 26 28 31 32 34 35 36 36 37 36 37 37 37 38 38 38 38 38 38 38 37 37 37 36 36 36 36 36 36 36 35 35 35 34 34 35 36 36
45 41 37 34 31 28 27 24 21 20 19 17 15 15 16 17 17 17 17 17 17 17 18 21 24 26 27 28 29 31 33 34 35 36 36 37 37 38 38 39 40 41 40 40 40 40 40 39 39 39 38 38 38 38 37 37 37 37 37 36 37 40 39
44 40 36 33 31 28 26 23 21 19 18 16 16 17 17 17 17 17 17 16 16 18 20 22 23 24 25 27 29 31 32 33 34 35 36 36 37 37 38 39 40 41 41 41 41 40 40 40 40 40 40 40 39 38 38 38 37 38 38 37 38 40 40
41 40 38 36 33 29 25 22 20 18 16 16 17 17 17 17 16 16 16 16 18 19 20 21 22 23 25 28 30 32 33 35 35 36 36 36 36 37 37 38 39 41 41 42 41 40 39 39 40 41 42 42 41 40 40 39 38 38 38 39 39 41 41
39 38 37 35 32 29 25 21 18 17 16 17 16 16 16 15 15 15 15 16 17 18 19 21 22 24 26 29 32 35 36 37 37 38 38 38 38 38 37 38 39 40 41 41 40 39 38 38 39 41 43 43 43 43 42 41 39 38 39 39 41 41 41
39 37 35 31 27 25 22 19 17 16 16 16 15 15 14 14 14 14 15 15 16 18 20 22 24 25 27 31 35 38 39 40 40 40 40 40 39 40 39 39 39 40 41 40 40 39 38 37 39 41 43 44 44 44 44 42 40 40 39 39 40 41 40
37 34 31 28 25 23 20 18 16 15 15 15 14 13 13 13 12 12 13 14 17 20 23 24 24 26 29 33 37 40 42 43 43 42 42 41 41 41 41 40 40 40 41 41 40 39 38 38 41 42 43 44 45 46 45 42 41 41 39 39 39 39 39
33 30 28 28 28 25 21 17 16 16 15 13 12 12 12 11 10 10 12 14 18 21 23 24 25 28 30 34 38 41 44 45 45 44 43 43 43 42 42 41 41 40 41 41 40 39 39 39 41 43 43 43 45 47 46 42 41 41 39 39 38 37 38
32 28 27 29 27 22 19 17 16 15 13 11 11 11 9 8 8 9 12 15 19 22 24 25 27 29 32 35 38 42 44 46 46 46 45 44 44 44 42 42 41 41 41 41 40 39 39 38 40 42 42 42 45 47 45 42 41 40 38 39 38 37 37
32 29 29 28 24 20 18 16 14 12 11 10 9 8 6 7 8 10 13 17 20 22 23 26 28 30 33 36 39 42 45 46 46 46 46 45 44 43 43 43 42 41 41 41 40 39 38 38 38 40 41 42 44 45 43 42 41 39 38 39 38 38 38
32 31 30 26 21 19 16 12 10 9 7 6 4 4 5 7 9 12 14 18 20 21 23 26 29 31 34 37 40 43 45 46 44 44 44 44 43 43 43 42 42 41 40 40 40 39 39 38 38 40 42 42 42 42 41 40 40 39 39 40 39 39 39
32 32 28 22 18 17 14 11 8 5 3 2 1 3 5 8 11 13 16 18 19 21 23 26 29 32 35 39 42 44 45 44 43 41 42 43 43 43 43 42 42 42 41 41 41 40 40 39 39 41 42 42 41 40 39 40 40 40 41 42 41 41 41
32 28 24 19 17 16 14 10 7 5 3 1 2 3 5 8 11 14 17 19 20 21 23 27 30 33 36 40 43 44 44 44 42 40 40 41 42 43 43 42 42 42 42 42 42 41 40 39 39 40 40 40 40 39 39 40 41 41 42 42 43 44 43
Wind_Direction
208 208 215 183 155 132 102 91 85 80 73 74 78 83 86 86 87 97 125 160 191 213 226 235 242 248 252 256 259 261 264 266 269 270 269 271 269 268 266 263 268 270 270 270 268 270 278 277 270 262 259 262 266 269 269 268 268 267 267 267 267 270 274
210 217 227 221 200 185 155 122 110 102 91 86 85 86 87 90 90 89 93 104 124 156 199 227 246 256 258 263 265 266 268 270 273 275 275 275 273 273 273 270 271 273 272 274 274 273 275 279 278 273 270 270 268 269 272 274 273 268 264 264 265 266 269
212 218 226 228 224 220 219 209 184 152 119 110 105 100 97 94 94 93 90 90 99 114 138 186 243 265 273 276 272 270 269 268 271 272 274 274 273 274 275 274 275 279 283 286 285 283 284 288 289 285 282 279 275 270 267 269 273 270 264 260 262 264 266
217 221 226 226 227 229 231 232 222 207 179 149 136 126 119 113 104 95 85 81 78 72 66 273 273 277 279 280 277 274 269 267 267 267 269 270 271 271 271 272 273 275 281 288 289 288 288 290 294 295 293 288 285 278 270 267 264 262 261 258 259 264 266
222 228 231 228 229 233 237 241 235 222 213 201 178 158 148 140 128 106 73 57 53 38 360 334 321 313 303 294 286 280 273 268 265 264 264 265 267 267 266 266 266 267 268 272 277 280 279 278 282 288 291 291 291 285 279 280 270 256 252 253 257 264 267
227 231 234 230 229 233 240 244 242 236 231 227 211 187 180 183 196 226 300 357 22 19 5 355 344 337 329 320 310 297 285 275 268 265 263 262 265 266 265 263 261 261 262 263 268 273 276 278 281 285 287 288 291 289 287 288 282 264 250 246 254 262 265
228 231 232 229 228 232 239 245 247 245 241 239 230 215 208 210 228 261 311 348 2 359 354 350 342 337 334 330 327 319 304 286 275 269 266 265 265 266 268 267 263 261 261 261 264 267 271 276 282 289 291 291 289 290 290 287 285 279 261 251 256 262 262
226 230 231 229 229 233 240 247 249 247 247 247 240 233 231 230 245 279 321 340 344 341 340 338 332 329 329 331 335 333 325 307 289 276 270 267 266 266 268 269 268 265 263 263 262 264 266 269 273 277 285 294 295 294 296 293 289 286 276 266 265 265 263
225 228 228 227 229 232 239 249 253 253 255 254 251 250 250 256 274 299 320 326 326 325 326 327 325 324 324 328 334 337 334 326 314 297 282 274 269 268 267 268 270 269 266 264 262 262 263 264 266 269 272 281 291 297 299 297 290 284 281 280 276 270 269
226 229 229 227 228 232 238 245 250 253 254 254 256 258 261 270 285 302 311 314 313 314 317 322 324 325 327 328 330 332 332 327 324 319 307 294 283 275 271 269 269 270 269 267 264 262 261 261 261 264 267 269 277 287 292 293 290 284 281 284 283 279 278
231 233 232 229 229 231 236 241 244 247 249 251 254 255 259 268 279 291 298 302 303 304 311 319 323 325 328 329 327 327 326 323 318 316 313 308 302 292 284 277 272 271 271 270 268 265 263 262 260 259 261 264 268 274 279 284 286 282 281 283 283 282 283
234 235 232 228 228 230 233 238 242 244 245 247 250 251 256 263 271 279 285 289 290 293 303 312 318 322 323 322 321 320 319 317 312 308 306 304 304 300 294 287 280 275 273 272 271 269 267 265 263 261 259 259 261 266 271 277 280 278 278 280 280 279 281
236 237 233 228 228 229 231 235 239 241 242 244 246 247 250 256 263 270 277 280 280 283 294 305 311 316 318 317 317 316 314 312 311 308 305 303 301 298 292 289 286 282 278 275 272 271 271 269 267 265 262 260 258 260 264 268 274 274 272 276 279 278 279
237 237 234 231 230 228 228 231 234 236 238 240 242 243 245 249 255 262 270 274 275 278 288 302 311 314 316 318 318 317 315 312 311 310 308 306 304 300 293 287 286 284 281 277 275 274 274 272 270 268 265 264 261 259 260 263 269 274 272 273 276 278 280
237 237 234 232 231 228 226 228 229 230 232 235 238 240 243 245 251 258 266 270 271 275 289 304 313 316 318 320 319 318 317 314 313 311 309 308 306 303 297 289 285 285 282 278 275 274 274 274 273 272 269 267 265 261 260 262 267 272 273 271 272 275 279
237 237 235 232 232 229 227 226 225 226 228 229 232 236 240 243 250 258 264 267 268 277 295 308 314 318 320 320 318 316 314 312 311 310 308 307 306 304 302 295 288 284 282 281 278 274 273 272 273 274 272 270 268 264 262 263 265 268 271 271 271 273 274
238 238 235 233 233 232 229 227 225 225 225 227 229 232 236 240 248 257 262 265 272 288 303 309 313 317 319 317 314 313 312 312 310 309 307 306 305 305 303 300 295 287 281 279 279 277 274 272 271 273 273 272 272 269 264 264 265 266 268 268 267 268 271
238 238 236 233 234 234 232 229 227 225 224 226 229 231 233 239 247 255 260 266 283 299 305 307 310 314 314 311 311 312 313 314 313 311 310 308 306 304 303 302 300 296 289 283 279 278 278 277 275 273 273 274 274 273 268 266 265 265 265 264 263 264 267
236 237 236 233 234 234 232 230 227 224 225 228 230 232 234 239 246 252 259 274 292 300 300 304 308 308 306 306 310 313 314 315 314 312 311 309 307 305 302 301 300 299 297 293 288 282 280 282 282 281 279 278 278 277 272 267 266 265 264 262 261 261 264
234 236 236 234 234 234 231 230 228 225 227 229 231 234 237 241 244 250 265 284 293 294 297 302 303 302 304 308 312 314 314 314 312 310 309 307 306 304 300 298 296 296 296 295 293 290 285 284 285 285 285 284 283 282 279 273 268 267 267 265 261 260 262
233 232 234 231 229 229 229 229 228 227 228 229 232 236 239 241 245 254 272 284 288 291 295 297 298 302 308 313 313 313 312 312 310 309 307 305 304 301 297 293 291 291 290 290 290 290 287 286 285 283 283 283 282 281 281 279 275 272 270 268 263 259 260
235 232 231 227 221 220 222 223 225 225 224 226 230 233 237 241 248 260 273 280 284 289 293 296 302 308 310 310 309 309 309 308 307 306 305 304 302 299 295 291 288 287 286 286 285 284 283 283 283 282 281 282 282 281 281 281 279 278 275 272 267 262 260
237 232 228 221 215 211 212 213 214 217 220 224 227 229 236 243 252 262 270 275 280 286 294 301 306 305 304 305 306 306 306 305 304 303 302 302 300 298 295 292 289 287 285 284 283 281 280 278 277 278 278 278 279 280 280 280 279 278 277 275 271 266 263
238 233 226 217 209 206 205 204 205 210 215 219 223 229 236 243 252 260 265 272 280 288 297 301 300 299 301 303 305 305 304 304 303 301 300 299 299 298 296 294 292 289 287 285 284 283 281 279 276 275 275 275 275 274 274 275 275 275 275 275 273 270 266
237 230 220 210 205 204 202 199 199 204 210 213 218 227 236 244 252 257 264 275 285 291 294 295 296 300 304 306 307 306 305 304 303 301 300 299 298 297 297 296 294 293 290 289 287 286 285 283 280 278 275 273 272 271 270 268 268 269 271 271 271 268 266
236 224 212 208 208 203 197 196 199 204 207 210 217 226 236 245 251 259 271 282 287 288 290 294 299 304 307 310 312 311 309 307 304 302 301 299 298 297 297 296 295 294 292 291 289 288 288 287 285 282 279 275 273 271 271 268 265 264 264 266 267 266 264
235 221 211 210 210 202 197 200 203 203 205 210 219 229 238 245 253 266 279 284 284 286 291 297 302 306 310 314 317 315 312 309 306 303 301 299 298 296 295 295 293 292 291 290 289 289 288 288 287 285 282 280 277 275 274 273 270 266 263 261 263 263 263
230 218 212 208 203 198 198 198 196 196 203 214 224 232 239 248 260 273 280 280 282 288 296 302 307 310 315 320 322 321 319 315 310 306 304 301 299 297 295 293 291 290 289 288 288 288 288 288 287 285 283 282 282 280 278 277 276 273 268 263 261 261 261
222 211 206 201 195 193 193 189 187 196 209 220 228 234 241 253 267 274 275 278 285 295 305 311 314 315 319 325 328 327 325 322 317 313 309 306 304 301 298 295 292 290 289 289 288 288 287 286 284 283 283 283 283 283 281 280 280 278 274 270 265 262 261
222 207 196 192 189 186 183 182 192 207 217 225 231 238 247 257 265 269 272 280 292 306 314 317 317 318 321 326 328 328 328 326 322 318 314 311 307 304 301 297 294 292 290 290 289 288 286 284 282 281 281 281 282 281 281 281 282 280 278 275 270 267 263
221 202 188 185 187 185 182 188 205 217 222 228 234 241 250 255 260 267 277 288 301 311 316 318 319 318 320 323 325 326 326 325 323 321 318 314 309 306 302 299 295 292 290 289 288 287 285 282 280 279 279 279 279 278 278 280 281 281 281 278 274 271 267
211 197 187 185 188 188 187 193 207 216 220 229 237 241 247 253 261 274 284 294 306 313 317 319 320 319 319 321 322 323 324 324 323 322 319 315 311 307 304 301 297 294 291 290 288 287 284 280 277 276 275 275 275 275 277 279 280 281 282 281 278 275 271
204 199 190 185 185 184 185 191 201 211 218 226 230 235 244 256 267 281 291 301 310 316 319 320 320 319 319 319 319 320 322 322 322 321 319 315 312 308 305 302 299 296 294 292 290 288 284 280 277 275 273 271 270 273 276 278 279 279 281 281 278 275 271
199 191 181 180 180 179 184 192 199 205 209 212 218 230 251 267 279 291 300 307 313 318 320 319 319 319 318 316 317 319 320 321 322 320 317 314 311 308 306 304 301 299 297 295 293 290 287 284 280 277 273 271 271 274 276 277 276 276 275 275 275 272 270
191 181 176 175 175 175 180 185 186 188 190 194 208 242 268 283 295 301 304 309 314 319 320 318 317 317 316 315 316 317 319 320 321 319 315 311 309 308 306 304 302 301 299 296 294 292 289 287 283 278 275 274 274 275 275 274 272 271 270 269 268 267 265
178 173 172 169 167 170 170 165 159 146 125 124 238 274 287 298 305 306 307 312 317 319 319 317 316 315 314 314 315 317 319 320 320 318 312 309 308 307 306 305 303 302 299 296 293 291 289 285 281 278 277 276 274 273 271 269 268 266 265 264 263 261 259
167 164 162 160 161 161 154 138 123 106 95 112 262 286 303 309 310 310 313 317 320 320 317 315 315 314 314 314 315 318 320 321 320 317 311 307 306 306 304 303 302 300 298 295 293 290 287 283 280 278 277 276 274 271 268 266 264 263 262 261 259 258 256